ETD36V LIMC-OMAA

Flight info

Callsign ETD36V
Flight time 4h 25m
Altitude 37000
Route ROBAS DCT EKDIR DCT LOMED DCT TUFTE DCT URIPI DCT DIVKU DCT MOKTO DCT LUPAL DCT LATAN DCT TRL DCT PAXIS Y707 OBRAN L321 REXUM M872 LUBOS/N0477F390 M872 BDB Y214 RAPMA DCT KUVSO DCT KATIT DCT DANUX DCT TANSU/N0503F330 G783 VAVIM P899 ROVOS
Aircraft A346/H-SDE2E3FGHIJ3J4J5M1RWXY/LB1D1

Departure

Time 2026-05-05 10:22
Airport Milan Malpensa International Airport (LIMC)

Arrival

Time 2026-05-05 14:47
Airport Zayed International Airport (OMAA)
Time Latitude Longitude Altitude Speed Heading
2026-05-05 09:39 45.62854 8.71435 756 ft 0 kts 169°
2026-05-05 10:08 45.62862 8.71433 755 ft 4 kts 170°
2026-05-05 10:08 45.62889 8.71426 755 ft 4 kts 168°
2026-05-05 10:08 45.62913 8.71415 755 ft 4 kts 151°
2026-05-05 10:08 45.62935 8.71395 755 ft 4 kts 144°
2026-05-05 10:09 45.62950 8.71375 755 ft 0 kts 127°
2026-05-05 10:10 45.62949 8.71378 755 ft 1 kts 123°
2026-05-05 10:11 45.62931 8.71466 757 ft 13 kts 90°
2026-05-05 10:11 45.62944 8.71601 756 ft 14 kts 80°
2026-05-05 10:11 45.62963 8.71748 759 ft 16 kts 79°
2026-05-05 10:11 45.62971 8.71906 755 ft 17 kts 119°
2026-05-05 10:12 45.62853 8.71975 760 ft 20 kts 170°
2026-05-05 10:12 45.62710 8.72014 757 ft 21 kts 167°
2026-05-05 10:12 45.62558 8.72057 758 ft 23 kts 171°
2026-05-05 10:12 45.62398 8.72099 759 ft 24 kts 169°
2026-05-05 10:13 45.62232 8.72144 759 ft 25 kts 169°
2026-05-05 10:13 45.62057 8.72192 758 ft 26 kts 168°
2026-05-05 10:13 45.61876 8.72245 757 ft 27 kts 168°
2026-05-05 10:13 45.61695 8.72294 759 ft 27 kts 169°
2026-05-05 10:14 45.61525 8.72340 757 ft 21 kts 169°
2026-05-05 10:14 45.61405 8.72397 757 ft 16 kts 135°
2026-05-05 10:14 45.61320 8.72502 757 ft 16 kts 150°
2026-05-05 10:14 45.61203 8.72541 760 ft 18 kts 170°
2026-05-05 10:15 45.61090 8.72620 755 ft 20 kts 110°
2026-05-05 10:15 45.61107 8.72828 755 ft 22 kts 81°
2026-05-05 10:15 45.61136 8.73034 756 ft 20 kts 61°
2026-05-05 10:15 45.61237 8.73143 756 ft 18 kts 38°
2026-05-05 10:16 45.61344 8.73245 754 ft 20 kts 22°
2026-05-05 10:16 45.61483 8.73248 758 ft 21 kts 349°
2026-05-05 10:16 45.61547 8.73231 755 ft 18 kts 349°
2026-05-05 10:16 45.61618 8.73296 753 ft 13 kts 76°
2026-05-05 10:17 45.61624 8.73429 761 ft 14 kts 106°
2026-05-05 10:17 45.61592 8.73539 758 ft 12 kts 123°
2026-05-05 10:17 45.61594 8.73652 752 ft 14 kts 69°
2026-05-05 10:17 45.61674 8.73716 751 ft 15 kts 353°
2026-05-05 10:18 45.61698 8.73711 753 ft 0 kts 352°
2026-05-05 10:18 45.61706 8.73710 750 ft 0 kts 352°
2026-05-05 10:18 45.61707 8.73710 750 ft 0 kts 352°
2026-05-05 10:19 45.61715 8.73708 752 ft 2 kts 352°
2026-05-05 10:19 45.61722 8.73707 753 ft 0 kts 351°
2026-05-05 10:19 45.61723 8.73706 753 ft 1 kts 351°
2026-05-05 10:20 45.61724 8.73706 753 ft 0 kts 351°
2026-05-05 10:20 45.61725 8.73706 752 ft 1 kts 351°
2026-05-05 10:20 45.61741 8.73702 752 ft 10 kts 351°
2026-05-05 10:20 45.62009 8.73630 753 ft 69 kts 349°
2026-05-05 10:21 45.62669 8.73447 753 ft 122 kts 349°
2026-05-05 10:21 45.63664 8.73172 755 ft 167 kts 349°
2026-05-05 10:21 45.63886 8.73112 757 ft 173 kts 349°
2026-05-05 10:21 45.64633 8.72908 1103 ft 168 kts 348°
2026-05-05 10:22 45.65758 8.72605 1760 ft 167 kts 358°
2026-05-05 10:22 45.66858 8.73165 2108 ft 180 kts 46°
2026-05-05 10:22 45.67619 8.74622 2570 ft 186 kts 55°
2026-05-05 10:22 45.68360 8.76218 2894 ft 199 kts 55°
2026-05-05 10:23 45.69180 8.77853 3338 ft 204 kts 53°
2026-05-05 10:23 45.70051 8.79475 3925 ft 206 kts 53°
2026-05-05 10:23 45.70952 8.81089 4509 ft 209 kts 53°
2026-05-05 10:23 45.71816 8.82768 5081 ft 210 kts 66°
2026-05-05 10:24 45.72116 8.84806 5447 ft 219 kts 96°
2026-05-05 10:24 45.71550 8.86863 5858 ft 228 kts 129°
2026-05-05 10:24 45.70499 8.88561 6620 ft 227 kts 131°
2026-05-05 10:24 45.69276 8.89966 7339 ft 229 kts 158°
2026-05-05 10:25 45.67686 8.90440 7866 ft 242 kts 175°
2026-05-05 10:25 45.65962 8.90527 8460 ft 251 kts 178°
2026-05-05 10:25 45.64197 8.90590 9238 ft 253 kts 178°
2026-05-05 10:25 45.62428 8.90689 10045 ft 255 kts 178°
2026-05-05 10:26 45.60650 8.90815 10738 ft 258 kts 179°
2026-05-05 10:26 45.58872 8.90958 11332 ft 262 kts 178°
2026-05-05 10:26 45.57001 8.91151 11712 ft 277 kts 177°
2026-05-05 10:26 45.55022 8.91374 12005 ft 293 kts 177°
2026-05-05 10:27 45.52936 8.91634 12311 ft 309 kts 173°
2026-05-05 10:27 45.50845 8.92679 12595 ft 331 kts 151°
2026-05-05 10:27 45.49078 8.94928 12899 ft 354 kts 129°
2026-05-05 10:27 45.47804 8.98057 13231 ft 373 kts 121°
2026-05-05 10:28 45.46563 9.01398 13577 ft 388 kts 121°
2026-05-05 10:28 45.45281 9.04839 14140 ft 395 kts 121°
2026-05-05 10:28 45.43982 9.08309 14836 ft 398 kts 121°
2026-05-05 10:28 45.42669 9.11800 15526 ft 401 kts 122°
2026-05-05 10:29 45.41342 9.15313 16179 ft 404 kts 122°
2026-05-05 10:29 45.39998 9.18860 16820 ft 408 kts 122°
2026-05-05 10:29 45.38641 9.22433 17443 ft 412 kts 122°
2026-05-05 10:29 45.37267 9.26043 18071 ft 416 kts 122°
2026-05-05 10:30 45.35896 9.29641 18646 ft 420 kts 122°
2026-05-05 10:30 45.34492 9.33320 19165 ft 424 kts 122°
2026-05-05 10:30 45.33078 9.37018 19733 ft 427 kts 122°
2026-05-05 10:30 45.31655 9.40734 20371 ft 429 kts 123°
2026-05-05 10:31 45.30222 9.44474 20935 ft 432 kts 123°
2026-05-05 10:31 45.28777 9.48238 21513 ft 434 kts 123°
2026-05-05 10:31 45.27321 9.52027 22064 ft 437 kts 123°
2026-05-05 10:31 45.25855 9.55833 22584 ft 440 kts 123°
2026-05-05 10:32 45.24382 9.59654 23099 ft 442 kts 123°
2026-05-05 10:32 45.22898 9.63498 23631 ft 445 kts 123°
2026-05-05 10:32 45.21393 9.67364 24022 ft 447 kts 124°
2026-05-05 10:32 45.19627 9.70987 24396 ft 446 kts 133°
2026-05-05 10:33 45.17512 9.74202 24818 ft 444 kts 141°
2026-05-05 10:33 45.15118 9.76958 25198 ft 443 kts 147°
2026-05-05 10:33 45.12605 9.79533 25502 ft 448 kts 148°
2026-05-05 10:33 45.10050 9.82110 25844 ft 453 kts 148°
2026-05-05 10:34 45.07509 9.84666 26247 ft 456 kts 148°
2026-05-05 10:34 45.04911 9.87280 26665 ft 459 kts 148°
2026-05-05 10:34 45.02306 9.89906 26986 ft 462 kts 148°
2026-05-05 10:34 44.99676 9.92550 27406 ft 464 kts 148°
2026-05-05 10:35 44.97037 9.95206 27800 ft 467 kts 148°
2026-05-05 10:35 44.94371 9.97883 28174 ft 470 kts 148°
2026-05-05 10:35 44.91702 10.00566 28608 ft 472 kts 148°
2026-05-05 10:35 44.89027 10.03254 29162 ft 472 kts 148°
2026-05-05 10:36 44.86358 10.05934 29753 ft 470 kts 148°
2026-05-05 10:36 44.83698 10.08601 30304 ft 469 kts 148°
2026-05-05 10:36 44.81033 10.11270 30758 ft 468 kts 148°
2026-05-05 10:36 44.78375 10.13929 31193 ft 468 kts 149°
2026-05-05 10:37 44.75715 10.16584 31622 ft 468 kts 149°
2026-05-05 10:37 44.62117 10.30098 33496 ft 472 kts 149°
2026-05-05 10:37 44.47394 10.44641 35346 ft 473 kts 150°
2026-05-05 10:37 44.31596 10.60152 36767 ft 479 kts 150°
2026-05-05 10:38 44.16727 10.77167 37057 ft 492 kts 137°
2026-05-05 10:38 44.04112 10.98057 37024 ft 495 kts 134°
2026-05-05 10:38 43.80892 11.41831 37029 ft 502 kts 130°
2026-05-05 10:39 43.56990 11.86588 37059 ft 505 kts 130°
2026-05-05 10:39 43.32903 12.31012 37069 ft 507 kts 130°
2026-05-05 10:40 43.12870 12.67453 37085 ft 507 kts 131°
2026-05-05 10:40 42.88674 13.10871 37060 ft 509 kts 131°
2026-05-05 10:41 42.64460 13.55252 37050 ft 515 kts 125°
2026-05-05 10:41 42.42192 14.03571 37040 ft 517 kts 126°
2026-05-05 10:42 42.07144 14.77842 37050 ft 524 kts 127°
2026-05-05 10:43 41.83923 15.25017 37061 ft 520 kts 130°
2026-05-05 10:43 41.58340 15.69439 37119 ft 521 kts 131°
2026-05-05 10:44 41.30931 16.13097 37105 ft 522 kts 134°
2026-05-05 10:44 41.01895 16.57146 37089 ft 518 kts 134°
2026-05-05 10:45 40.72797 17.00644 37116 ft 516 kts 134°
2026-05-05 10:45 40.44219 17.42008 37105 ft 516 kts 135°
2026-05-05 10:46 40.14458 17.83955 37111 ft 515 kts 135°
2026-05-05 10:46 39.86096 18.23399 37133 ft 513 kts 135°
2026-05-05 10:47 39.57295 18.62928 37141 ft 513 kts 135°
2026-05-05 10:47 39.39075 18.87333 37147 ft 514 kts 137°
2026-05-05 10:48 39.34035 18.93887 37146 ft 514 kts 136°
2026-05-05 10:48 39.29194 19.00685 37148 ft 515 kts 130°
2026-05-05 10:49 39.24932 19.08128 37149 ft 515 kts 126°
2026-05-05 10:49 39.20845 19.15750 37151 ft 517 kts 125°
2026-05-05 10:50 39.16736 19.23388 37149 ft 518 kts 126°
2026-05-05 10:50 39.12618 19.31005 37147 ft 518 kts 126°
2026-05-05 10:51 39.08485 19.38620 37146 ft 518 kts 126°
2026-05-05 10:51 39.04351 19.46219 37165 ft 518 kts 126°
2026-05-05 10:52 39.00224 19.53779 37152 ft 519 kts 126°
2026-05-05 10:52 38.96072 19.61376 37158 ft 519 kts 126°
2026-05-05 10:53 38.91908 19.68975 37160 ft 519 kts 126°
2026-05-05 10:53 38.87739 19.76566 37159 ft 519 kts 126°
2026-05-05 10:54 38.83558 19.84153 37168 ft 520 kts 126°
2026-05-05 10:54 38.79373 19.91736 37165 ft 521 kts 126°
2026-05-05 10:55 38.75182 19.99314 37164 ft 521 kts 126°
2026-05-05 10:55 38.71009 20.06841 37151 ft 521 kts 126°
2026-05-05 10:56 38.66807 20.14400 37177 ft 520 kts 126°
2026-05-05 10:56 38.62590 20.21967 37166 ft 521 kts 126°
2026-05-05 10:57 38.58368 20.29530 37167 ft 522 kts 126°
2026-05-05 10:57 38.54167 20.37038 37167 ft 522 kts 126°
2026-05-05 10:58 38.49936 20.44580 37167 ft 522 kts 126°
2026-05-05 10:58 38.45692 20.52123 37171 ft 523 kts 126°
2026-05-05 10:59 38.41430 20.59687 37169 ft 524 kts 126°
2026-05-05 10:59 38.37163 20.67242 37157 ft 523 kts 126°
2026-05-05 11:00 38.32923 20.74728 37165 ft 523 kts 126°
2026-05-05 11:00 38.28656 20.82250 37180 ft 524 kts 126°
2026-05-05 11:01 38.24367 20.89786 37169 ft 525 kts 126°
2026-05-05 11:01 38.20074 20.97318 37165 ft 525 kts 126°
2026-05-05 11:02 38.15802 21.04795 37165 ft 525 kts 126°
2026-05-05 11:02 38.11499 21.12307 37167 ft 525 kts 126°
2026-05-05 11:03 38.07180 21.19826 37170 ft 526 kts 126°
2026-05-05 11:03 38.02868 21.27324 37162 ft 526 kts 126°
2026-05-05 11:04 37.98551 21.34811 37165 ft 525 kts 126°
2026-05-05 11:04 37.94223 21.42299 37168 ft 525 kts 126°
2026-05-05 11:05 37.89923 21.49721 37169 ft 525 kts 126°
2026-05-05 11:05 37.85591 21.57180 37153 ft 525 kts 126°
2026-05-05 11:06 37.81254 21.64633 37154 ft 525 kts 126°
2026-05-05 11:06 37.76914 21.72074 37153 ft 525 kts 126°
2026-05-05 11:07 37.72569 21.79507 37156 ft 525 kts 126°
2026-05-05 11:07 37.68212 21.86937 37150 ft 525 kts 126°
2026-05-05 11:08 37.63852 21.94366 37141 ft 525 kts 126°
2026-05-05 11:08 37.59496 22.01767 37144 ft 525 kts 126°
2026-05-05 11:09 37.55135 22.09161 37140 ft 525 kts 126°
2026-05-05 11:09 37.50789 22.16502 37149 ft 526 kts 126°
2026-05-05 11:10 37.46405 22.23901 37119 ft 527 kts 126°
2026-05-05 11:10 37.42015 22.31293 37133 ft 527 kts 126°
2026-05-05 11:11 37.37499 22.38562 37125 ft 526 kts 128°
2026-05-05 11:11 37.32891 22.45726 37134 ft 526 kts 128°
2026-05-05 11:12 37.28275 22.52879 37124 ft 526 kts 128°
2026-05-05 11:12 37.23651 22.60035 37124 ft 526 kts 128°
2026-05-05 11:13 37.19034 22.67168 37122 ft 526 kts 128°
2026-05-05 11:13 37.14410 22.74297 37120 ft 526 kts 128°
2026-05-05 11:14 37.09810 22.81371 37136 ft 527 kts 128°
2026-05-05 11:14 37.05172 22.88491 37124 ft 527 kts 128°
2026-05-05 11:15 37.00523 22.95616 37136 ft 527 kts 128°
2026-05-05 11:15 36.95884 23.02709 37129 ft 527 kts 128°
2026-05-05 11:16 36.91232 23.09802 37131 ft 527 kts 128°
2026-05-05 11:16 36.86599 23.16852 37135 ft 528 kts 128°
2026-05-05 11:17 36.81928 23.23949 37135 ft 528 kts 128°
2026-05-05 11:17 36.77260 23.31025 37132 ft 528 kts 128°
2026-05-05 11:18 36.72586 23.38096 37123 ft 527 kts 129°
2026-05-05 11:18 36.67909 23.45154 37143 ft 528 kts 129°
2026-05-05 11:19 36.63241 23.52181 37132 ft 528 kts 129°
2026-05-05 11:19 36.58542 23.59244 37139 ft 529 kts 129°
2026-05-05 11:20 36.53840 23.66297 37131 ft 529 kts 129°
2026-05-05 11:20 36.49139 23.73333 37132 ft 529 kts 129°
2026-05-05 11:21 36.44450 23.80335 37138 ft 530 kts 129°
2026-05-05 11:21 36.39726 23.87378 37143 ft 530 kts 129°
2026-05-05 11:22 36.34999 23.94408 37143 ft 530 kts 129°
2026-05-05 11:22 36.30275 24.01418 37142 ft 530 kts 129°
2026-05-05 11:23 36.25540 24.08431 37132 ft 530 kts 129°
2026-05-05 11:23 36.20796 24.15444 37143 ft 531 kts 129°
2026-05-05 11:24 36.16071 24.22412 37153 ft 531 kts 129°
2026-05-05 11:24 36.11316 24.29410 37144 ft 531 kts 129°
2026-05-05 11:25 36.06551 24.36413 37140 ft 530 kts 129°
2026-05-05 11:25 36.01782 24.43402 37138 ft 532 kts 129°
2026-05-05 11:26 35.96986 24.50417 37145 ft 532 kts 129°
2026-05-05 11:26 35.92224 24.57369 37133 ft 532 kts 129°
2026-05-05 11:27 35.87434 24.64346 37129 ft 532 kts 129°
2026-05-05 11:27 35.82641 24.71315 37133 ft 532 kts 129°
2026-05-05 11:28 35.77845 24.78273 37133 ft 532 kts 130°
2026-05-05 11:28 35.73047 24.85221 37138 ft 532 kts 130°
2026-05-05 11:29 35.69053 24.90993 37135 ft 532 kts 130°
2026-05-05 11:29 35.64242 24.97932 37142 ft 532 kts 130°
2026-05-05 11:30 35.59435 25.04853 37141 ft 533 kts 130°
2026-05-05 11:30 35.54633 25.11753 37140 ft 533 kts 130°
2026-05-05 11:31 35.49804 25.18676 37140 ft 533 kts 130°
2026-05-05 11:31 35.44964 25.25602 37146 ft 533 kts 130°
2026-05-05 11:32 35.40124 25.32516 37119 ft 533 kts 130°
2026-05-05 11:32 35.35283 25.39417 37135 ft 534 kts 130°
2026-05-05 11:33 35.30425 25.46323 37133 ft 534 kts 130°
2026-05-05 11:33 35.25564 25.53222 37121 ft 534 kts 130°
2026-05-05 11:34 35.20734 25.60063 37124 ft 534 kts 130°
2026-05-05 11:34 35.15871 25.66939 37131 ft 534 kts 130°
2026-05-05 11:35 35.11000 25.73813 37122 ft 535 kts 131°
2026-05-05 11:35 35.06122 25.80687 37100 ft 535 kts 131°
2026-05-05 11:36 35.01234 25.87556 37117 ft 535 kts 131°
2026-05-05 11:36 34.96348 25.94403 37121 ft 535 kts 131°
2026-05-05 11:37 34.91455 26.01252 37122 ft 535 kts 131°
2026-05-05 11:37 34.86556 26.08091 37115 ft 535 kts 131°
2026-05-05 11:38 34.81654 26.14925 37109 ft 535 kts 131°
2026-05-05 11:38 34.76740 26.21771 37116 ft 535 kts 131°
2026-05-05 11:39 34.71853 26.28565 37117 ft 537 kts 131°
2026-05-05 11:39 34.66923 26.35419 37113 ft 538 kts 131°
2026-05-05 11:40 34.61985 26.42259 37111 ft 538 kts 131°
2026-05-05 11:40 34.57035 26.49075 37114 ft 538 kts 132°
2026-05-05 11:41 34.52072 26.55882 37114 ft 538 kts 132°
2026-05-05 11:41 34.47151 26.62643 37111 ft 537 kts 132°
2026-05-05 11:42 34.42205 26.69428 37116 ft 537 kts 132°
2026-05-05 11:42 34.37259 26.76206 37096 ft 537 kts 133°
2026-05-05 11:43 34.32301 26.82984 37108 ft 537 kts 133°
2026-05-05 11:43 34.27340 26.89752 37120 ft 537 kts 133°
2026-05-05 11:44 34.22380 26.96507 37111 ft 537 kts 133°
2026-05-05 11:44 34.17414 27.03256 37110 ft 537 kts 133°
2026-05-05 11:45 34.12444 27.09998 37113 ft 537 kts 133°
2026-05-05 11:45 34.07468 27.16734 37107 ft 537 kts 133°
2026-05-05 11:46 34.02491 27.23464 37110 ft 537 kts 134°
2026-05-05 11:46 33.97153 27.29749 37115 ft 535 kts 142°
2026-05-05 11:47 33.91178 27.34943 37125 ft 531 kts 152°
2026-05-05 11:47 33.84641 27.39004 37112 ft 526 kts 160°
2026-05-05 11:48 33.74576 27.44266 37104 ft 525 kts 161°
2026-05-05 11:48 33.67885 27.47776 37131 ft 524 kts 161°
2026-05-05 11:49 33.61250 27.51272 37122 ft 524 kts 161°
2026-05-05 11:49 33.54563 27.54791 37120 ft 524 kts 161°
2026-05-05 11:50 33.47885 27.58304 37093 ft 524 kts 161°
2026-05-05 11:50 33.41220 27.61803 37112 ft 523 kts 161°
2026-05-05 11:51 33.34549 27.65299 37121 ft 523 kts 161°
2026-05-05 11:51 33.27880 27.68789 37124 ft 523 kts 161°
2026-05-05 11:52 33.21211 27.72274 37101 ft 523 kts 161°
2026-05-05 11:52 33.14541 27.75753 37118 ft 523 kts 161°
2026-05-05 11:53 33.07919 27.79200 37123 ft 522 kts 161°
2026-05-05 11:53 33.01252 27.82666 37124 ft 522 kts 161°
2026-05-05 11:54 32.94587 27.86125 37086 ft 522 kts 162°
2026-05-05 11:54 32.87917 27.89585 37115 ft 523 kts 162°
2026-05-05 11:55 32.81246 27.93033 37120 ft 522 kts 162°
2026-05-05 11:55 32.74561 27.96484 37121 ft 522 kts 162°
2026-05-05 11:56 32.67935 27.99899 37124 ft 522 kts 162°
2026-05-05 11:56 32.61263 28.03344 37124 ft 522 kts 162°
2026-05-05 11:57 32.54590 28.06781 37132 ft 522 kts 162°
2026-05-05 11:57 32.47916 28.10210 37125 ft 522 kts 162°
2026-05-05 11:58 32.41240 28.13628 37123 ft 522 kts 162°
2026-05-05 11:58 32.34565 28.17045 37123 ft 523 kts 162°
2026-05-05 11:59 32.27882 28.20454 37122 ft 523 kts 162°
2026-05-05 11:59 32.21194 28.23861 37125 ft 523 kts 162°
2026-05-05 12:00 32.14501 28.27266 37127 ft 523 kts 162°
2026-05-05 12:00 32.07850 28.30646 37117 ft 524 kts 162°
2026-05-05 12:01 32.01156 28.34039 37125 ft 523 kts 162°
2026-05-05 12:01 31.94465 28.37424 37128 ft 523 kts 163°
2026-05-05 12:02 31.87779 28.40803 37127 ft 522 kts 163°
2026-05-05 12:02 31.81110 28.44170 37123 ft 520 kts 163°
2026-05-05 12:03 31.74458 28.47510 37123 ft 519 kts 163°
2026-05-05 12:03 31.67813 28.50835 37131 ft 519 kts 163°
2026-05-05 12:04 31.61161 28.54162 37129 ft 519 kts 163°
2026-05-05 12:04 31.54503 28.57493 37115 ft 518 kts 163°
2026-05-05 12:05 31.47872 28.60797 37128 ft 518 kts 163°
2026-05-05 12:05 31.41231 28.64096 37134 ft 518 kts 163°
2026-05-05 12:06 31.34601 28.67386 37136 ft 517 kts 163°
2026-05-05 12:06 31.27971 28.70672 37110 ft 516 kts 164°
2026-05-05 12:07 31.21406 28.73919 37127 ft 515 kts 164°
2026-05-05 12:07 31.14798 28.77181 37133 ft 515 kts 164°
2026-05-05 12:08 31.08191 28.80437 37132 ft 515 kts 164°
2026-05-05 12:08 31.01584 28.83690 37111 ft 514 kts 164°
2026-05-05 12:09 30.95005 28.86926 37125 ft 512 kts 164°
2026-05-05 12:09 30.88476 28.90129 37127 ft 512 kts 164°
2026-05-05 12:10 30.81904 28.93349 37123 ft 512 kts 164°
2026-05-05 12:10 30.75329 28.96565 37129 ft 512 kts 164°
2026-05-05 12:11 30.68773 28.99767 37119 ft 510 kts 164°
2026-05-05 12:11 30.62227 29.02957 37115 ft 510 kts 164°
2026-05-05 12:12 30.55731 29.06371 37115 ft 515 kts 159°
2026-05-05 12:12 30.49581 29.10753 37112 ft 523 kts 150°
2026-05-05 12:13 30.43960 29.16122 37093 ft 529 kts 141°
2026-05-05 12:13 30.38810 29.22251 37108 ft 531 kts 138°
2026-05-05 12:14 30.33881 29.28657 37107 ft 534 kts 133°
2026-05-05 12:14 30.29561 29.35689 37110 ft 538 kts 125°
2026-05-05 12:15 30.25978 29.43332 37109 ft 541 kts 118°
2026-05-05 12:15 30.22767 29.51241 37110 ft 542 kts 118°
2026-05-05 12:16 30.19557 29.59151 37109 ft 542 kts 118°
2026-05-05 12:16 30.16874 29.65703 37107 ft 542 kts 118°
2026-05-05 12:17 30.13105 29.74859 37107 ft 542 kts 118°
2026-05-05 12:17 30.09857 29.82724 37104 ft 542 kts 118°
2026-05-05 12:18 30.07150 29.89268 37104 ft 542 kts 118°
2026-05-05 12:18 30.03885 29.97141 37105 ft 543 kts 118°
2026-05-05 12:19 30.00618 30.05006 37102 ft 542 kts 119°
2026-05-05 12:19 29.97338 30.12875 37315 ft 545 kts 119°
2026-05-05 12:20 29.95699 30.16810 37730 ft 542 kts 119°
2026-05-05 12:20 29.94069 30.20732 38107 ft 540 kts 119°
2026-05-05 12:20 29.92447 30.24633 38458 ft 538 kts 119°
2026-05-05 12:20 29.90822 30.28529 38738 ft 538 kts 119°
2026-05-05 12:21 29.89193 30.32424 38942 ft 538 kts 119°
2026-05-05 12:21 29.87582 30.36263 39078 ft 539 kts 119°
2026-05-05 12:21 29.84291 30.44040 39081 ft 538 kts 123°
2026-05-05 12:22 29.82216 30.47574 39081 ft 529 kts 136°
2026-05-05 12:22 29.79637 30.50529 39084 ft 518 kts 148°
2026-05-05 12:22 29.73637 30.54874 39095 ft 506 kts 159°
2026-05-05 12:23 29.67474 30.58801 39093 ft 507 kts 159°
2026-05-05 12:23 29.61327 30.62784 39088 ft 507 kts 158°
2026-05-05 12:24 29.55193 30.66801 39093 ft 507 kts 158°
2026-05-05 12:24 29.49062 30.70825 39092 ft 507 kts 158°
2026-05-05 12:25 29.42931 30.74847 39092 ft 507 kts 158°
2026-05-05 12:25 29.36801 30.78863 39092 ft 507 kts 158°
2026-05-05 12:26 29.30665 30.82876 39092 ft 507 kts 158°
2026-05-05 12:26 29.24572 30.86856 39077 ft 507 kts 158°
2026-05-05 12:27 29.18445 30.90853 39090 ft 507 kts 158°
2026-05-05 12:27 29.12310 30.94850 39091 ft 507 kts 158°
2026-05-05 12:28 29.06168 30.98847 39091 ft 506 kts 158°
2026-05-05 12:28 29.00050 31.02820 39098 ft 506 kts 158°
2026-05-05 12:29 28.93922 31.06794 39090 ft 505 kts 158°
2026-05-05 12:29 28.87811 31.10755 39094 ft 505 kts 158°
2026-05-05 12:30 28.81694 31.14723 39102 ft 505 kts 158°
2026-05-05 12:30 28.75613 31.18791 39102 ft 508 kts 155°
2026-05-05 12:31 28.69803 31.23477 39104 ft 515 kts 148°
2026-05-05 12:31 28.64437 31.28961 39095 ft 520 kts 141°
2026-05-05 12:32 28.59542 31.35011 39101 ft 523 kts 138°
2026-05-05 12:32 28.54665 31.41180 39103 ft 523 kts 138°
2026-05-05 12:33 28.49771 31.47322 39106 ft 523 kts 139°
2026-05-05 12:33 28.44884 31.53452 39100 ft 523 kts 139°
2026-05-05 12:34 28.40000 31.59569 39103 ft 522 kts 139°
2026-05-05 12:34 28.35114 31.65674 39098 ft 522 kts 139°
2026-05-05 12:35 28.30231 31.71767 39076 ft 521 kts 139°
2026-05-05 12:35 28.25345 31.77856 39094 ft 521 kts 139°
2026-05-05 12:36 28.20467 31.83928 39089 ft 520 kts 139°
2026-05-05 12:36 28.15587 31.89989 39090 ft 520 kts 139°
2026-05-05 12:37 28.10857 31.95855 39095 ft 520 kts 139°
2026-05-05 12:37 28.06048 32.01992 39085 ft 523 kts 135°
2026-05-05 12:38 28.01754 32.08703 39074 ft 529 kts 128°
2026-05-05 12:38 27.93836 32.24867 39065 ft 532 kts 124°
2026-05-05 12:39 27.74285 32.65233 39013 ft 531 kts 124°
2026-05-05 12:39 27.54059 33.06544 39009 ft 530 kts 125°
2026-05-05 12:40 27.34072 33.46971 38974 ft 528 kts 125°
2026-05-05 12:40 27.14724 33.88044 38981 ft 533 kts 117°
2026-05-05 12:41 26.98982 34.32327 38986 ft 531 kts 118°
2026-05-05 12:41 26.83592 34.74907 38956 ft 532 kts 118°
2026-05-05 12:42 26.67251 35.19645 38972 ft 532 kts 119°
2026-05-05 12:42 26.50452 35.64677 38960 ft 530 kts 121°
2026-05-05 12:43 26.33984 36.07502 38953 ft 531 kts 121°
2026-05-05 12:43 26.17455 36.49777 38954 ft 527 kts 125°
2026-05-05 12:44 25.98249 36.88718 38941 ft 526 kts 128°
2026-05-05 12:44 25.77877 37.29639 38938 ft 526 kts 128°
2026-05-05 12:45 25.56440 37.72560 38924 ft 528 kts 128°
2026-05-05 12:45 25.35157 38.14754 38888 ft 527 kts 128°
2026-05-05 12:46 25.15079 38.54196 38887 ft 526 kts 128°
2026-05-05 12:46 24.94657 38.93919 38885 ft 524 kts 128°
2026-05-05 12:47 24.73137 39.35392 38897 ft 523 kts 128°
2026-05-05 12:47 24.53803 39.79626 38925 ft 550 kts 105°
2026-05-05 12:48 24.50538 40.14193 38915 ft 554 kts 102°
2026-05-05 12:48 24.48897 40.31046 38907 ft 553 kts 102°
2026-05-05 12:49 24.47212 40.47748 38891 ft 553 kts 102°
2026-05-05 12:49 24.45523 40.64533 38911 ft 551 kts 102°
2026-05-05 12:50 24.43815 40.81286 38919 ft 552 kts 102°
2026-05-05 12:50 24.42076 40.98095 38911 ft 551 kts 102°
2026-05-05 12:51 24.40333 41.14809 38908 ft 550 kts 102°
2026-05-05 12:51 24.38586 41.31421 38922 ft 550 kts 102°
2026-05-05 12:52 24.36805 41.48227 38928 ft 550 kts 102°
2026-05-05 12:52 24.35032 41.64776 38928 ft 548 kts 102°
2026-05-05 12:53 24.33854 41.75574 38935 ft 548 kts 102°
2026-05-05 12:53 24.32674 41.83752 38946 ft 542 kts 108°
2026-05-05 12:54 24.29679 41.95678 38949 ft 538 kts 113°
2026-05-05 12:55 24.27568 42.03559 38941 ft 538 kts 112°
2026-05-05 12:55 24.25485 42.11446 38951 ft 538 kts 113°
2026-05-05 12:56 24.23398 42.19329 38952 ft 537 kts 112°
2026-05-05 12:56 24.21309 42.27191 38955 ft 536 kts 113°
2026-05-05 12:57 24.19214 42.35058 38961 ft 536 kts 112°
2026-05-05 12:57 24.17133 42.42866 38951 ft 536 kts 112°
2026-05-05 12:58 24.15042 42.50703 38964 ft 535 kts 112°
2026-05-05 12:58 24.12950 42.58528 38970 ft 534 kts 112°
2026-05-05 12:59 24.10854 42.66340 38969 ft 534 kts 112°
2026-05-05 12:59 24.08757 42.74149 38977 ft 533 kts 112°
2026-05-05 13:00 24.05601 42.85854 38988 ft 533 kts 112°
2026-05-05 13:01 24.01394 43.01434 38985 ft 533 kts 112°
2026-05-05 13:01 23.99293 43.09174 38980 ft 533 kts 112°
2026-05-05 13:02 23.97179 43.16951 38982 ft 533 kts 112°
2026-05-05 13:02 23.95060 43.24726 38980 ft 533 kts 112°
2026-05-05 13:03 23.92935 43.32502 38983 ft 533 kts 112°
2026-05-05 13:03 23.90807 43.40278 38988 ft 533 kts 112°
2026-05-05 13:04 23.88674 43.48047 38973 ft 532 kts 112°
2026-05-05 13:04 23.86542 43.55803 38965 ft 532 kts 112°
2026-05-05 13:05 23.84766 43.62251 38949 ft 532 kts 112°
2026-05-05 13:05 23.82274 43.71264 38945 ft 531 kts 112°
2026-05-05 13:06 23.80135 43.78989 38934 ft 531 kts 112°
2026-05-05 13:06 23.78149 43.86782 38919 ft 533 kts 108°
2026-05-05 13:07 23.77067 43.93495 38911 ft 537 kts 101°
2026-05-05 13:07 23.76414 44.01654 38907 ft 539 kts 98°
2026-05-05 13:08 23.75862 44.09772 38893 ft 539 kts 98°
2026-05-05 13:08 23.75269 44.17943 38914 ft 539 kts 98°
2026-05-05 13:09 23.74654 44.26120 38895 ft 539 kts 98°
2026-05-05 13:09 23.74032 44.34284 38897 ft 538 kts 98°
2026-05-05 13:10 23.73404 44.42465 38883 ft 538 kts 99°
2026-05-05 13:10 23.72779 44.50560 38897 ft 537 kts 99°
2026-05-05 13:11 23.72136 44.58697 38890 ft 537 kts 99°
2026-05-05 13:11 23.71493 44.66818 38893 ft 535 kts 99°
2026-05-05 13:12 23.70847 44.74916 38882 ft 534 kts 99°
2026-05-05 13:12 23.70201 44.83008 38888 ft 534 kts 99°
2026-05-05 13:13 23.69557 44.91098 38875 ft 534 kts 99°
2026-05-05 13:13 23.68910 44.99200 38882 ft 536 kts 99°
2026-05-05 13:14 23.68253 45.07295 38860 ft 533 kts 99°
2026-05-05 13:14 23.67598 45.15305 38855 ft 532 kts 99°
2026-05-05 13:15 23.66939 45.23360 38848 ft 532 kts 99°
2026-05-05 13:15 23.66278 45.31425 38841 ft 532 kts 99°
2026-05-05 13:16 23.65611 45.39480 38835 ft 532 kts 99°
2026-05-05 13:16 23.64936 45.47545 38827 ft 533 kts 99°
2026-05-05 13:17 23.64255 45.55608 38798 ft 533 kts 99°
2026-05-05 13:17 23.63575 45.63603 38815 ft 531 kts 99°
2026-05-05 13:18 23.62899 45.71630 38807 ft 530 kts 99°
2026-05-05 13:18 23.62215 45.79657 38795 ft 530 kts 99°
2026-05-05 13:19 23.61524 45.87677 38808 ft 530 kts 99°
2026-05-05 13:19 23.60828 45.95696 38809 ft 530 kts 99°
2026-05-05 13:20 23.60133 46.03673 38804 ft 531 kts 99°
2026-05-05 13:20 23.59436 46.11703 38806 ft 531 kts 99°
2026-05-05 13:21 23.58731 46.19727 38808 ft 531 kts 99°
2026-05-05 13:21 23.58016 46.27774 38820 ft 532 kts 99°
2026-05-05 13:22 23.57294 46.35818 38816 ft 532 kts 99°
2026-05-05 13:22 23.56566 46.43866 38818 ft 532 kts 99°
2026-05-05 13:23 23.55835 46.51914 38812 ft 532 kts 99°
2026-05-05 13:23 23.55115 46.59903 38790 ft 532 kts 99°
2026-05-05 13:24 23.54389 46.67919 38804 ft 530 kts 99°
2026-05-05 13:24 23.53655 46.75928 38799 ft 530 kts 99°
2026-05-05 13:25 23.52915 46.83933 38788 ft 529 kts 99°
2026-05-05 13:25 23.52169 46.91936 38788 ft 530 kts 99°
2026-05-05 13:26 23.51426 46.99885 38787 ft 530 kts 99°
2026-05-05 13:26 23.50672 47.07889 38783 ft 530 kts 99°
2026-05-05 13:27 23.49913 47.15899 38770 ft 529 kts 99°
2026-05-05 13:27 23.49154 47.23872 38778 ft 528 kts 99°
2026-05-05 13:28 23.48383 47.31831 38778 ft 527 kts 99°
2026-05-05 13:28 23.47606 47.39832 38781 ft 527 kts 99°
2026-05-05 13:29 23.46834 47.47810 38776 ft 527 kts 99°
2026-05-05 13:29 23.46064 47.55768 38775 ft 527 kts 99°
2026-05-05 13:30 23.45293 47.63670 38770 ft 527 kts 99°
2026-05-05 13:30 23.44508 47.71649 38760 ft 525 kts 99°
2026-05-05 13:31 23.43736 47.79496 38767 ft 524 kts 99°
2026-05-05 13:31 23.42964 47.87388 38763 ft 523 kts 99°
2026-05-05 13:32 23.42180 47.95278 38758 ft 523 kts 99°
2026-05-05 13:32 23.41379 48.03146 38754 ft 523 kts 99°
2026-05-05 13:33 23.40575 48.11040 38750 ft 523 kts 99°
2026-05-05 13:33 23.39773 48.18933 38745 ft 523 kts 99°
2026-05-05 13:34 23.38966 48.26813 38732 ft 522 kts 99°
2026-05-05 13:34 23.38225 48.34663 38741 ft 521 kts 97°
2026-05-05 13:35 23.37873 48.42570 38733 ft 522 kts 95°
2026-05-05 13:35 23.37583 48.50464 38732 ft 521 kts 95°
2026-05-05 13:36 23.37276 48.58365 38736 ft 521 kts 95°
2026-05-05 13:36 23.36952 48.66259 38733 ft 521 kts 95°
2026-05-05 13:37 23.36621 48.74153 38734 ft 521 kts 95°
2026-05-05 13:37 23.36284 48.82041 38734 ft 520 kts 95°
2026-05-05 13:38 23.35945 48.89877 38721 ft 520 kts 95°
2026-05-05 13:38 23.35599 48.97728 38726 ft 518 kts 95°
2026-05-05 13:39 23.35209 49.05568 38726 ft 517 kts 97°
2026-05-05 13:39 23.34280 49.13331 38724 ft 515 kts 101°
2026-05-05 13:40 23.33177 49.21046 38722 ft 515 kts 101°
2026-05-05 13:40 23.32055 49.28761 38719 ft 515 kts 102°
2026-05-05 13:41 23.30922 49.36476 38723 ft 516 kts 102°
2026-05-05 13:41 23.29807 49.44193 38723 ft 516 kts 101°
2026-05-05 13:42 23.28700 49.51850 38718 ft 514 kts 101°
2026-05-05 13:42 23.27583 49.59538 38721 ft 514 kts 102°
2026-05-05 13:43 23.26453 49.67224 38728 ft 514 kts 101°
2026-05-05 13:43 23.25323 49.74910 38730 ft 514 kts 102°
2026-05-05 13:44 23.24185 49.82598 38730 ft 514 kts 102°
2026-05-05 13:44 23.23040 49.90287 38730 ft 514 kts 102°
2026-05-05 13:45 23.21891 49.97978 38729 ft 514 kts 102°
2026-05-05 13:45 23.20743 50.05654 38728 ft 513 kts 102°
2026-05-05 13:46 23.19599 50.13311 38732 ft 512 kts 102°
2026-05-05 13:46 23.18459 50.20910 38732 ft 512 kts 101°
2026-05-05 13:47 23.17321 50.28570 38734 ft 512 kts 102°
2026-05-05 13:47 23.16171 50.36239 38739 ft 512 kts 102°
2026-05-05 13:48 23.15012 50.43888 38740 ft 512 kts 102°
2026-05-05 13:48 23.13843 50.51545 38738 ft 513 kts 103°
2026-05-05 13:49 23.12650 50.59193 38734 ft 512 kts 102°
2026-05-05 13:49 23.11475 50.66834 38737 ft 512 kts 102°
2026-05-05 13:50 23.10300 50.74479 38734 ft 512 kts 102°
2026-05-05 13:50 23.09121 50.82132 38738 ft 512 kts 102°
2026-05-05 13:51 23.07941 50.89770 38733 ft 512 kts 102°
2026-05-05 13:51 23.06755 50.97412 38738 ft 512 kts 102°
2026-05-05 13:52 23.05770 51.03751 38740 ft 512 kts 102°
2026-05-05 13:52 23.04576 51.11400 38726 ft 512 kts 102°
2026-05-05 13:53 23.03382 51.19035 38738 ft 511 kts 102°
2026-05-05 13:53 23.02188 51.26658 38738 ft 511 kts 102°
2026-05-05 13:54 23.00997 51.34232 38739 ft 511 kts 102°
2026-05-05 13:54 22.99790 51.41842 38739 ft 511 kts 102°
2026-05-05 13:55 22.98577 51.49467 38734 ft 511 kts 102°
2026-05-05 13:55 22.97363 51.57080 38737 ft 511 kts 102°
2026-05-05 13:56 22.96146 51.64696 38738 ft 511 kts 102°
2026-05-05 13:56 22.94932 51.72311 38739 ft 511 kts 102°
2026-05-05 13:57 22.93725 51.79925 38736 ft 511 kts 102°
2026-05-05 13:57 22.92500 51.87543 38736 ft 512 kts 102°
2026-05-05 13:58 22.91269 51.95159 38739 ft 512 kts 102°
2026-05-05 13:58 22.90034 52.02776 38739 ft 512 kts 102°
2026-05-05 13:59 22.88179 52.14168 38740 ft 512 kts 102°
2026-05-05 14:00 22.86307 52.25607 38733 ft 512 kts 102°
2026-05-05 14:00 22.85055 52.33222 38743 ft 512 kts 102°
2026-05-05 14:01 22.83797 52.40842 38742 ft 512 kts 102°
2026-05-05 14:01 22.82542 52.48487 38735 ft 513 kts 101°
2026-05-05 14:02 22.81577 52.56175 38734 ft 514 kts 99°
2026-05-05 14:02 22.80663 52.63872 38735 ft 514 kts 99°
2026-05-05 14:03 22.79738 52.71574 38739 ft 514 kts 99°
2026-05-05 14:03 22.78806 52.79266 38733 ft 514 kts 99°
2026-05-05 14:04 22.77857 52.87042 38739 ft 514 kts 99°
2026-05-05 14:04 22.76921 52.94684 38737 ft 514 kts 99°
2026-05-05 14:05 22.75975 53.02369 38733 ft 513 kts 99°
2026-05-05 14:05 22.75027 53.10043 38733 ft 513 kts 99°
2026-05-05 14:06 22.74074 53.17721 38732 ft 513 kts 99°
2026-05-05 14:06 22.73117 53.25404 38733 ft 513 kts 99°
2026-05-05 14:07 22.72157 53.33078 38727 ft 514 kts 99°
2026-05-05 14:07 22.71193 53.40757 38728 ft 514 kts 99°
2026-05-05 14:08 22.70226 53.48433 38731 ft 514 kts 99°
2026-05-05 14:08 22.69255 53.56104 38716 ft 513 kts 99°
2026-05-05 14:09 22.68285 53.63747 38724 ft 511 kts 99°
2026-05-05 14:09 22.67310 53.71384 38722 ft 511 kts 99°
2026-05-05 14:10 22.66333 53.79009 38729 ft 511 kts 99°
2026-05-05 14:10 22.65356 53.86609 38727 ft 511 kts 100°
2026-05-05 14:11 22.64370 53.94239 38726 ft 511 kts 100°
2026-05-05 14:11 22.63380 54.01868 38729 ft 511 kts 100°
2026-05-05 14:12 22.62383 54.09511 38726 ft 512 kts 100°
2026-05-05 14:12 22.61456 54.17172 38722 ft 513 kts 96°
2026-05-05 14:13 22.61573 54.24903 38716 ft 515 kts 84°
2026-05-05 14:13 22.63051 54.32437 38725 ft 514 kts 72°
2026-05-05 14:14 22.65785 54.39592 38737 ft 514 kts 64°
2026-05-05 14:14 22.68936 54.46576 38731 ft 516 kts 63°
2026-05-05 14:15 22.72065 54.53592 38509 ft 516 kts 64°
2026-05-05 14:15 22.73612 54.57094 38262 ft 514 kts 64°
2026-05-05 14:15 22.75149 54.60586 37988 ft 511 kts 64°
2026-05-05 14:16 22.76678 54.64061 37723 ft 508 kts 64°
2026-05-05 14:16 22.78200 54.67524 37457 ft 507 kts 64°
2026-05-05 14:16 22.79715 54.70971 37192 ft 506 kts 64°
2026-05-05 14:16 22.81230 54.74422 36940 ft 506 kts 64°
2026-05-05 14:17 22.82743 54.77871 36682 ft 506 kts 64°
2026-05-05 14:17 22.84238 54.81280 36437 ft 507 kts 64°
2026-05-05 14:17 22.85749 54.84728 36194 ft 507 kts 64°
2026-05-05 14:17 22.87266 54.88189 35954 ft 507 kts 64°
2026-05-05 14:18 22.88778 54.91647 35708 ft 507 kts 64°
2026-05-05 14:18 22.90292 54.95110 35462 ft 507 kts 63°
2026-05-05 14:18 22.91805 54.98573 35235 ft 507 kts 63°
2026-05-05 14:18 22.93314 55.02033 34995 ft 507 kts 63°
2026-05-05 14:19 22.94825 55.05500 34763 ft 507 kts 63°
2026-05-05 14:19 22.96337 55.08971 34534 ft 508 kts 63°
2026-05-05 14:19 22.97847 55.12439 34306 ft 508 kts 63°
2026-05-05 14:19 22.99511 55.15858 34067 ft 506 kts 56°
2026-05-05 14:20 23.01577 55.18946 33851 ft 504 kts 47°
2026-05-05 14:20 23.04020 55.21663 33606 ft 501 kts 39°
2026-05-05 14:20 23.06777 55.23958 33356 ft 498 kts 30°
2026-05-05 14:20 23.09789 55.25798 33092 ft 495 kts 22°
2026-05-05 14:21 23.13033 55.27172 32779 ft 492 kts 14°
2026-05-05 14:21 23.16327 55.28192 32309 ft 492 kts 12°
2026-05-05 14:21 23.19647 55.29149 31709 ft 492 kts 11°
2026-05-05 14:21 23.22966 55.30091 31061 ft 493 kts 11°
2026-05-05 14:22 23.26238 55.31025 30403 ft 494 kts 11°
2026-05-05 14:22 23.29570 55.31987 29692 ft 496 kts 12°
2026-05-05 14:22 23.32908 55.32962 28880 ft 497 kts 12°
2026-05-05 14:22 23.36255 55.33945 28135 ft 497 kts 12°
2026-05-05 14:23 23.39587 55.34929 27461 ft 495 kts 12°
2026-05-05 14:23 23.42892 55.35910 27004 ft 488 kts 12°
2026-05-05 14:23 23.46145 55.36878 26549 ft 482 kts 13°
2026-05-05 14:23 23.49376 55.37841 25995 ft 478 kts 13°
2026-05-05 14:24 23.52569 55.38791 25518 ft 473 kts 13°
2026-05-05 14:24 23.55732 55.39726 25042 ft 468 kts 13°
2026-05-05 14:24 23.58858 55.40650 24612 ft 463 kts 13°
2026-05-05 14:24 23.61954 55.41565 24170 ft 458 kts 13°
2026-05-05 14:25 23.65017 55.42472 23726 ft 454 kts 13°
2026-05-05 14:25 23.68054 55.43372 23280 ft 450 kts 13°
2026-05-05 14:25 23.71019 55.44252 22770 ft 446 kts 13°
2026-05-05 14:25 23.73992 55.45135 22306 ft 441 kts 13°
2026-05-05 14:26 23.76938 55.46011 21853 ft 436 kts 13°
2026-05-05 14:26 23.79851 55.46877 21397 ft 431 kts 14°
2026-05-05 14:26 23.82733 55.47734 20947 ft 427 kts 14°
2026-05-05 14:26 23.85590 55.48583 20510 ft 423 kts 14°
2026-05-05 14:27 23.88427 55.49424 20067 ft 420 kts 14°
2026-05-05 14:27 23.91236 55.50258 19623 ft 417 kts 14°
2026-05-05 14:27 23.94029 55.51088 19191 ft 414 kts 14°
2026-05-05 14:27 23.96800 55.51911 18763 ft 411 kts 14°
2026-05-05 14:28 23.99549 55.52725 18332 ft 408 kts 14°
2026-05-05 14:28 24.02283 55.53536 17871 ft 406 kts 14°
2026-05-05 14:28 24.05003 55.54349 17390 ft 403 kts 14°
2026-05-05 14:28 24.07698 55.55156 16940 ft 400 kts 14°
2026-05-05 14:29 24.10377 55.55958 16513 ft 397 kts 14°
2026-05-05 14:29 24.13033 55.56750 16080 ft 394 kts 14°
2026-05-05 14:29 24.15671 55.57537 15651 ft 392 kts 14°
2026-05-05 14:29 24.18296 55.58318 15219 ft 390 kts 13°
2026-05-05 14:30 24.20968 55.58608 14743 ft 386 kts 353°
2026-05-05 14:30 24.23495 55.57838 14315 ft 382 kts 333°
2026-05-05 14:30 24.25634 55.56158 13888 ft 379 kts 313°
2026-05-05 14:30 24.27099 55.53809 13652 ft 367 kts 294°
2026-05-05 14:31 24.27820 55.51176 13453 ft 355 kts 282°
2026-05-05 14:31 24.28318 55.48565 13321 ft 343 kts 281°
2026-05-05 14:31 24.28792 55.46037 13173 ft 332 kts 281°
2026-05-05 14:31 24.29252 55.43603 13079 ft 318 kts 281°
2026-05-05 14:32 24.29697 55.41265 12991 ft 306 kts 281°
2026-05-05 14:32 24.30128 55.39016 12904 ft 296 kts 281°
2026-05-05 14:32 24.30295 55.36830 12757 ft 289 kts 260°
2026-05-05 14:32 24.29569 55.34756 12722 ft 301 kts 235°
2026-05-05 14:33 24.28228 55.32951 12765 ft 306 kts 230°
2026-05-05 14:33 24.26837 55.31168 12720 ft 308 kts 230°
2026-05-05 14:33 24.25436 55.29367 12460 ft 308 kts 230°
2026-05-05 14:33 24.24048 55.27572 12143 ft 306 kts 229°
2026-05-05 14:34 24.22675 55.25792 11797 ft 305 kts 229°
2026-05-05 14:34 24.21308 55.24019 11452 ft 304 kts 229°
2026-05-05 14:34 24.19949 55.22252 11109 ft 302 kts 228°
2026-05-05 14:34 24.18593 55.20493 10767 ft 301 kts 228°
2026-05-05 14:35 24.17240 55.18730 10400 ft 302 kts 227°
2026-05-05 14:35 24.15878 55.16979 10036 ft 302 kts 228°
2026-05-05 14:35 24.14526 55.15228 9727 ft 300 kts 228°
2026-05-05 14:35 24.13185 55.13488 9412 ft 298 kts 228°
2026-05-05 14:36 24.11851 55.11755 9102 ft 296 kts 228°
2026-05-05 14:36 24.10528 55.10040 8790 ft 294 kts 228°
2026-05-05 14:36 24.09214 55.08333 8495 ft 292 kts 228°
2026-05-05 14:36 24.07904 55.06641 8199 ft 289 kts 229°
2026-05-05 14:37 24.06714 55.04967 8098 ft 279 kts 242°
2026-05-05 14:37 24.06320 55.02949 7993 ft 268 kts 277°
2026-05-05 14:37 24.06937 55.01051 7745 ft 266 kts 306°
2026-05-05 14:37 24.08076 54.99472 7500 ft 262 kts 310°
2026-05-05 14:38 24.09257 54.98010 7419 ft 250 kts 323°
2026-05-05 14:38 24.10804 54.97325 7283 ft 237 kts 359°
2026-05-05 14:38 24.12377 54.97696 7061 ft 234 kts 31°
2026-05-05 14:38 24.13685 54.98757 6796 ft 234 kts 39°
2026-05-05 14:39 24.14958 54.99885 6525 ft 235 kts 37°
2026-05-05 14:39 24.16424 55.00648 6170 ft 237 kts
2026-05-05 14:39 24.17997 55.00279 5987 ft 233 kts 329°
2026-05-05 14:39 24.19238 54.99131 6024 ft 236 kts 313°
2026-05-05 14:40 24.20297 54.97749 6014 ft 236 kts 310°
2026-05-05 14:40 24.21307 54.96334 5991 ft 236 kts 309°
2026-05-05 14:40 24.21972 54.95390 5970 ft 236 kts 309°
2026-05-05 14:40 24.23313 54.93476 5666 ft 237 kts 309°
2026-05-05 14:41 24.23980 54.92527 5472 ft 237 kts 309°
2026-05-05 14:41 24.25314 54.90637 5065 ft 236 kts 309°
2026-05-05 14:41 24.26333 54.89191 4777 ft 236 kts 309°
2026-05-05 14:41 24.27334 54.87768 4532 ft 233 kts 309°
2026-05-05 14:42 24.27999 54.86822 4347 ft 229 kts 309°
2026-05-05 14:42 24.28953 54.85466 4055 ft 226 kts 309°
2026-05-05 14:42 24.29911 54.84106 3744 ft 224 kts 309°
2026-05-05 14:42 24.30865 54.82752 3457 ft 223 kts 309°
2026-05-05 14:43 24.31808 54.81412 3178 ft 220 kts 309°
2026-05-05 14:43 24.32741 54.80088 2908 ft 218 kts 309°
2026-05-05 14:43 24.33657 54.78787 2608 ft 213 kts 309°
2026-05-05 14:43 24.34536 54.77538 2320 ft 198 kts 309°
2026-05-05 14:44 24.35347 54.76383 2094 ft 183 kts 310°
2026-05-05 14:44 24.36098 54.75314 1860 ft 170 kts 311°
2026-05-05 14:44 24.36802 54.74321 1668 ft 162 kts 309°
2026-05-05 14:44 24.37484 54.73359 1496 ft 157 kts 308°
2026-05-05 14:45 24.38148 54.72413 1332 ft 154 kts 310°
2026-05-05 14:45 24.38801 54.71489 1130 ft 154 kts 309°
2026-05-05 14:45 24.39443 54.70577 950 ft 148 kts 310°
2026-05-05 14:45 24.40069 54.69691 771 ft 147 kts 309°
2026-05-05 14:46 24.40690 54.68810 624 ft 144 kts 309°
2026-05-05 14:46 24.41298 54.67936 389 ft 143 kts 306°
2026-05-05 14:46 24.41916 54.67073 226 ft 144 kts 307°
2026-05-05 14:46 24.42525 54.66216 96 ft 136 kts 307°
2026-05-05 14:47 24.43008 54.65538 89 ft 87 kts 309°
2026-05-05 14:47 24.43281 54.65162 90 ft 37 kts 309°
2026-05-05 14:47 24.43425 54.64990 91 ft 26 kts 319°
2026-05-05 14:47 24.43573 54.64892 87 ft 24 kts 335°
2026-05-05 14:48 24.43714 54.64815 89 ft 22 kts 323°
2026-05-05 14:48 24.43821 54.64695 89 ft 23 kts 304°
2026-05-05 14:48 24.43920 54.64555 90 ft 24 kts 311°
2026-05-05 14:48 24.44025 54.64411 88 ft 25 kts 308°
2026-05-05 14:49 24.44113 54.64318 89 ft 16 kts 348°
2026-05-05 14:49 24.44206 54.64372 88 ft 17 kts 34°
2026-05-05 14:49 24.44317 54.64385 86 ft 19 kts 320°
2026-05-05 14:49 24.44409 54.64273 89 ft 21 kts 324°
2026-05-05 14:50 24.44541 54.64205 88 ft 19 kts 340°
2026-05-05 14:50 24.44628 54.64192 87 ft 0 kts 28°
2026-05-05 14:50 24.44629 54.64193 87 ft 0 kts 29°
2026-05-05 14:50 24.44647 54.64216 86 ft 8 kts 62°
2026-05-05 14:51 24.44660 54.64261 86 ft 0 kts 72°
2026-05-05 14:51 24.44661 54.64265 88 ft 0 kts 72°
2026-05-05 14:51 24.44662 54.64265 88 ft 0 kts 72°